Del Rio, TX

6:15 PM CDT on July 26, 2016 (GMT -0500)
Del Rio International

Weather History for KDRT - March, 2014

Change the Weather History Date:

Saturday, March 29, 2014

  Actual Average Record
Temperature  
Mean Temperature 69 °F 67 °F  
Max Temperature 85 °F 80 °F 96 °F (1954)
Min Temperature 53 °F 55 °F 35 °F (1944)
Degree Days  
Heating Degree Days 0 2  
Month to date heating degree days 134 109  
Since 1 July heating degree days 1541 1345  
Cooling Degree Days 4 4  
Month to date cooling degree days 66 78  
Year to date cooling degree days 111 97  
Growing Degree Days 18 (Base 50)    
Moisture  
Dew Point 37 °F    
Average Humidity 38    
Maximum Humidity 59    
Minimum Humidity 16    
Precipitation  
Precipitation 0.00 in 0.03 in 0.44 in (1990)
Month to date precipitation 0.32 1.08  
Year to date precipitation 0.54 2.68  
Sea Level Pressure  
Sea Level Pressure 30.10 in    
Wind  
Wind Speed 9 mph (East)    
Max Wind Speed 18 mph    
Max Gust Speed 23 mph    
Visibility 10 miles    
Events      
T = Trace of Precipitation, MM = Missing Value Source: NWS Daily Summary

Daily Weather History Graph

Daily Weather History Graph

Search for Another Location

Airport or City:

Trip Planner

Search our weather history database for the weather conditions in past years. The results will help you decide how hot, cold, wet, or windy it might be!

Date:

Astronomy

Mar. 29, 2014 Rise Set
Actual Time 7:36 AM CDT 8:00 PM CDT
Civil Twilight 7:12 AM CDT 8:24 PM CDT
Nautical Twilight 6:45 AM CDT 8:52 PM CDT
Astronomical Twilight 6:16 AM CDT 9:20 PM CDT
Moon 6:41 AM CDT (3/29) 7:10 PM CDT (3/29)
Length of Visible Light 13h 11m
Length of Day
12h 23m
Waning Crescent, 2% of the Moon is Illuminated
Mar 29
Waning Crescent
Mar 30
New
Apr 7
First Quarter
Apr 15
Full
Apr 22
Last Quarter

Hourly Weather History & Observations

Time (CDT) Temp. Dew Point Humidity Pressure Visibility Wind Dir Wind Speed Gust Speed Precip Events Conditions
12:53 AM 61.0 °F 32.0 °F 34% 29.96 in 10.0 mi Calm Calm - N/A   Clear
1:53 AM 63.0 °F 30.0 °F 29% 29.98 in 10.0 mi North 6.9 mph - N/A   Clear
2:53 AM 62.1 °F 30.9 °F 31% 29.99 in 10.0 mi North 6.9 mph - N/A   Clear
3:53 AM 59.0 °F 34.0 °F 39% 30.00 in 10.0 mi WNW 5.8 mph - N/A   Clear
4:53 AM 57.9 °F 37.0 °F 46% 30.02 in 10.0 mi NNW 5.8 mph - N/A   Clear
5:53 AM 57.0 °F 37.9 °F 49% 30.07 in 10.0 mi West 3.5 mph - N/A   Clear
6:53 AM 55.9 °F 37.9 °F 51% 30.12 in 10.0 mi Calm Calm - N/A   Clear
7:53 AM 55.9 °F 41.0 °F 57% 30.17 in 10.0 mi North 9.2 mph - N/A   Clear
8:53 AM 62.1 °F 44.1 °F 52% 30.21 in 10.0 mi North 8.1 mph - N/A   Clear
9:53 AM 66.9 °F 45.0 °F 45% 30.23 in 10.0 mi NNE 8.1 mph - N/A   Clear
10:53 AM 70.0 °F 44.1 °F 39% 30.24 in 10.0 mi ENE 8.1 mph - N/A   Clear
11:53 AM 72.0 °F 43.0 °F 35% 30.25 in 10.0 mi East 5.8 mph - N/A   Clear
12:53 PM 75.9 °F 41.0 °F 29% 30.22 in 10.0 mi ESE 10.4 mph - N/A   Clear
1:53 PM 77.0 °F 39.0 °F 25% 30.18 in 10.0 mi ESE 8.1 mph - N/A   Clear
2:53 PM 81.0 °F 36.0 °F 20% 30.14 in 10.0 mi Variable 6.9 mph - N/A   Clear
3:53 PM 82.9 °F 36.0 °F 19% 30.09 in 10.0 mi East 8.1 mph - N/A   Clear
4:53 PM 84.0 °F 34.0 °F 17% 30.07 in 10.0 mi SSE 10.4 mph 18.4 mph N/A   Clear
5:53 PM 84.0 °F 33.1 °F 16% 30.06 in 10.0 mi SSE 16.1 mph - N/A   Clear
6:53 PM 82.0 °F 34.0 °F 18% 30.06 in 10.0 mi SE 17.3 mph - N/A   Clear
7:53 PM 79.0 °F 34.0 °F 20% 30.07 in 10.0 mi SE 12.7 mph - N/A   Clear
8:53 PM 75.0 °F 35.1 °F 23% 30.09 in 10.0 mi SE 8.1 mph - N/A   Clear
9:53 PM 72.0 °F 35.1 °F 26% 30.10 in 10.0 mi ESE 9.2 mph - N/A   Clear
10:53 PM 70.0 °F 33.1 °F 26% 30.12 in 10.0 mi ESE 10.4 mph - N/A   Clear
11:53 PM 69.1 °F 33.1 °F 26% 30.12 in 10.0 mi ESE 11.5 mph - N/A   Clear